{"data":{"norad_id":65959,"epoch":"2026-09-20T07:51:05.392800Z","epoch_age_seconds":158613,"freshness":"FRESH","line1":"1 65959U 25228N   26263.32714575  .00000622  00000+0  11055-3 0  9990","line2":"2 65959  51.9022 209.9710 0000902  77.7809 282.3254 14.79929707 42481","mean_motion":14.79929707,"eccentricity":9.02e-5,"inclination_deg":51.9022,"raan_deg":209.971,"arg_perigee_deg":77.7809,"mean_anomaly_deg":282.3254,"bstar":0.00011055,"rev_number":4248,"period_min":97.301918678223,"perigee_km":628.91393137046,"apogee_km":630.17811738806,"semimajor_km":7007.6830243793,"source":"CELESTRAK","updated_at":"2026-09-21T09:00:15.680772Z"}}